| time (UTC) | temp F | wind direction | speed MPH | gust MPH | rain 1hr in | rain 24hr in | rain mn in | humidity % | barometer mb |
| 20260503211822 | 66 | 108 | 0.0 | 2.0 | 0.00 | 0.00 | 0.00 | 36 | 1019.3 |
| 20260503211319 | 67 | 155 | 2.0 | 2.0 | 0.00 | 0.00 | 0.00 | 33 | 1019.2 |
| 20260503210819 | 67 | 140 | 0.0 | 6.0 | 0.00 | 0.00 | 0.00 | 32 | 1019.2 |
| 20260503210317 | 67 | 136 | 1.0 | 3.0 | 0.00 | 0.00 | 0.00 | 34 | 1019.2 |
| 20260503205811 | 67 | 183 | 1.0 | 3.0 | 0.00 | 0.00 | 0.00 | 35 | 1019.4 |
| 20260503205308 | 66 | 145 | 1.0 | 2.0 | 0.00 | 0.00 | 0.00 | 37 | 1019.6 |
| 20260503204805 | 66 | 155 | 2.0 | 3.0 | 0.00 | 0.00 | 0.00 | 33 | 1019.6 |
| 20260503204303 | 67 | 152 | 2.0 | 3.0 | 0.00 | 0.00 | 0.00 | 35 | 1019.5 |
| 20260503203800 | 67 | 174 | 5.0 | 9.0 | 0.00 | 0.00 | 0.00 | 32 | 1019.7 |
| 20260503203257 | 66 | 206 | 3.0 | 7.0 | 0.00 | 0.00 | 0.00 | 33 | 1019.7 |
| 20260503202754 | 67 | 152 | 2.0 | 3.0 | 0.00 | 0.00 | 0.00 | 33 | 1019.8 |
| 20260503202252 | 67 | 240 | 3.0 | 8.0 | 0.00 | 0.00 | 0.00 | 30 | 1020.0 |
| 20260503201749 | 66 | 152 | 0.0 | 4.0 | 0.00 | 0.00 | 0.00 | 32 | 1019.9 |
| 20260503201247 | 66 | 142 | 3.0 | 4.0 | 0.00 | 0.00 | 0.00 | 32 | 1020.1 |
| 20260503200743 | 66 | 103 | 0.0 | 3.0 | 0.00 | 0.00 | 0.00 | 37 | 1020.1 |
| 20260503200239 | 66 | 252 | 2.0 | 6.0 | 0.00 | 0.00 | 0.00 | 30 | 1020.3 |
| 20260503195736 | 66 | 189 | 2.0 | 7.0 | 0.00 | 0.00 | 0.00 | 32 | 1020.4 |
| 20260503195233 | 67 | 196 | 4.0 | 8.0 | 0.00 | 0.00 | 0.00 | 30 | 1020.6 |
| 20260503194731 | 67 | 119 | 1.0 | 7.0 | 0.00 | 0.00 | 0.00 | 31 | 1020.6 |
| 20260503194226 | 66 | 10 | 0.0 | 1.0 | 0.00 | 0.00 | 0.00 | 33 | 1020.5 |
| 20260503193723 | 66 | 239 | 3.0 | 4.0 | 0.00 | 0.00 | 0.00 | 31 | 1020.5 |
| 20260503193219 | 66 | 112 | 0.0 | 2.0 | 0.00 | 0.00 | 0.00 | 35 | 1020.7 |
| 20260503192715 | 65 | 128 | 1.0 | 3.0 | 0.00 | 0.00 | 0.00 | 34 | 1020.7 |
| 20260503192210 | 66 | 133 | 0.0 | 2.0 | 0.00 | 0.00 | 0.00 | 34 | 1020.8 |
| 20260503191707 | 65 | 175 | 2.0 | 4.0 | 0.00 | 0.00 | 0.00 | 33 | 1021.0 |
| 20260503191204 | 65 | 13 | 3.0 | 3.0 | 0.00 | 0.00 | 0.00 | 31 | 1021.0 |
| 20260503190701 | 64 | 208 | 1.0 | 4.0 | 0.00 | 0.00 | 0.00 | 34 | 1021.0 |
| 20260503190158 | 64 | 3 | 3.0 | 4.0 | 0.00 | 0.00 | 0.00 | 32 | 1021.2 |
| 20260503185655 | 65 | 256 | 1.0 | 2.0 | 0.00 | 0.00 | 0.00 | 33 | 1021.1 |
| 20260503185150 | 64 | 86 | 0.0 | 2.0 | 0.00 | 0.00 | 0.00 | 35 | 1021.2 |
| 20260503184645 | 64 | 126 | 1.0 | 2.0 | 0.00 | 0.00 | 0.00 | 36 | 1021.2 |
| 20260503184142 | 64 | 84 | 1.0 | 3.0 | 0.00 | 0.00 | 0.00 | 34 | 1021.3 |
| 20260503183638 | 65 | 142 | 1.0 | 4.0 | 0.00 | 0.00 | 0.00 | 37 | 1021.3 |
| 20260503183136 | 64 | 32 | 2.0 | 3.0 | 0.00 | 0.00 | 0.00 | 34 | 1021.2 |
| 20260503182634 | 64 | 91 | 0.0 | 1.0 | 0.00 | 0.00 | 0.00 | 36 | 1021.5 |
| 20260503182132 | 64 | 135 | 0.0 | 3.0 | 0.00 | 0.00 | 0.00 | 37 | 1021.5 |
| 20260503181628 | 63 | 113 | 0.0 | 3.0 | 0.00 | 0.00 | 0.00 | 34 | 1021.6 |
| 20260503181125 | 64 | 328 | 2.0 | 4.0 | 0.00 | 0.00 | 0.00 | 34 | 1021.8 |
| 20260503180622 | 63 | 64 | 2.0 | 4.0 | 0.00 | 0.00 | 0.00 | 36 | 1021.9 |
| 20260503180120 | 63 | 187 | 2.0 | 2.0 | 0.00 | 0.00 | 0.00 | 35 | 1022.0 |
| 20260503175616 | 64 | 228 | 3.0 | 4.0 | 0.00 | 0.00 | 0.00 | 32 | 1022.0 |
| 20260503175114 | 63 | 134 | 0.0 | 3.0 | 0.00 | 0.00 | 0.00 | 37 | 1021.9 |
| 20260503174610 | 62 | 68 | 1.0 | 2.0 | 0.00 | 0.00 | 0.00 | 32 | 1022.1 |
| 20260503174108 | 62 | 159 | 0.0 | 1.0 | 0.00 | 0.00 | 0.00 | 38 | 1022.1 |
| 20260503173602 | 62 | 142 | 1.0 | 2.0 | 0.00 | 0.00 | 0.00 | 36 | 1022.2 |
| 20260503173059 | 61 | 103 | 0.0 | 2.0 | 0.00 | 0.00 | 0.00 | 37 | 1022.4 |
| 20260503172556 | 61 | 0 | 3.0 | 4.0 | 0.00 | 0.00 | 0.00 | 34 | 1022.2 |
| 20260503172053 | 61 | 226 | 2.0 | 3.0 | 0.00 | 0.00 | 0.00 | 32 | 1022.4 |
| 20260503171550 | 61 | 118 | 2.0 | 4.0 | 0.00 | 0.00 | 0.00 | 33 | 1022.7 |
| 20260503171047 | 61 | 226 | 2.0 | 7.0 | 0.00 | 0.00 | 0.00 | 33 | 1022.8 |
| 20260503170543 | 61 | 171 | 2.0 | 3.0 | 0.00 | 0.00 | 0.00 | 36 | 1022.5 |
| 20260503150936 | 60 | 53 | 0.0 | 2.0 | 0.00 | 0.00 | 0.00 | 37 | 1023.7 |
| 20260503150433 | 60 | 96 | 0.0 | 2.0 | 0.00 | 0.00 | 0.00 | 37 | 1023.5 |
| 20260503131326 | 52 | 102 | 0.0 | 2.0 | 0.00 | 0.00 | 0.00 | 55 | 1023.5 |
| 20260503130823 | 52 | 105 | 0.0 | 1.0 | 0.00 | 0.00 | 0.00 | 54 | 1023.4 |
| 20260503130321 | 52 | 291 | 2.0 | 2.0 | 0.00 | 0.00 | 0.00 | 54 | 1023.5 |
| 20260503110714 | 39 | 116 | 0.0 | 0.0 | 0.00 | 0.00 | 0.00 | 93 | 1022.1 |
| 20260503110211 | 39 | 143 | 0.0 | 0.0 | 0.00 | 0.00 | 0.00 | 93 | 1022.1 |
| 20260503100138 | 39 | 143 | 0.0 | 0.0 | 0.00 | 0.00 | 0.00 | 91 | 1021.4 |
| 20260503081532 | 44 | 144 | 0.0 | 0.0 | 0.00 | 0.00 | 0.00 | 79 | 1021.1 |
| 20260503081030 | 44 | 144 | 0.0 | 0.0 | 0.00 | 0.00 | 0.00 | 77 | 1020.8 |
| 20260503080526 | 45 | 145 | 0.0 | 0.0 | 0.00 | 0.00 | 0.00 | 75 | 1020.6 |
| 20260503072459 | 47 | 143 | 0.0 | 0.0 | 0.00 | 0.00 | 0.00 | 69 | 1020.3 |
| 20260503071956 | 47 | 143 | 0.0 | 0.0 | 0.00 | 0.00 | 0.00 | 68 | 1020.2 |
| 20260503071453 | 48 | 143 | 0.0 | 1.0 | 0.00 | 0.00 | 0.00 | 67 | 1020.3 |
| 20260503070949 | 48 | 96 | 0.0 | 0.0 | 0.00 | 0.00 | 0.00 | 66 | 1020.1 |
| 20260503070446 | 48 | 120 | 0.0 | 0.0 | 0.00 | 0.00 | 0.00 | 66 | 1020.2 |
| 20260503054906 | 51 | 85 | 1.0 | 1.0 | 0.00 | 0.00 | 0.00 | 58 | 1020.2 |
| 20260503054402 | 52 | 61 | 0.0 | 1.0 | 0.00 | 0.00 | 0.00 | 57 | 1019.9 |
| 20260503053900 | 51 | 344 | 2.0 | 3.0 | 0.00 | 0.00 | 0.00 | 57 | 1019.9 |
| 20260503053358 | 51 | 5 | 1.0 | 2.0 | 0.00 | 0.00 | 0.00 | 58 | 1019.9 |
| 20260503052854 | 51 | 82 | 0.0 | 1.0 | 0.00 | 0.00 | 0.00 | 58 | 1020.2 |
| 20260503052351 | 51 | 119 | 0.0 | 2.0 | 0.00 | 0.00 | 0.00 | 61 | 1020.0 |
| 20260503051847 | 51 | 93 | 0.0 | 1.0 | 0.00 | 0.00 | 0.00 | 61 | 1020.1 |
| 20260503051343 | 51 | 84 | 0.0 | 1.0 | 0.00 | 0.00 | 0.00 | 60 | 1019.8 |
| 20260503050841 | 51 | 103 | 0.0 | 0.0 | 0.00 | 0.00 | 0.00 | 60 | 1019.9 |
| 20260503050337 | 51 | 103 | 0.0 | 0.0 | 0.00 | 0.00 | 0.00 | 60 | 1019.9 |
| 20260503045834 | 51 | 92 | 0.0 | 0.0 | 0.00 | 0.00 | 0.00 | 60 | 1020.0 |
| 20260503045332 | 51 | 46 | 0.0 | 0.0 | 0.00 | 0.00 | 0.00 | 59 | 1019.8 |
| 20260503044828 | 51 | 91 | 0.0 | 1.0 | 0.00 | 0.00 | 0.00 | 59 | 1019.9 |
| 20260503044325 | 51 | 111 | 0.0 | 0.0 | 0.00 | 0.00 | 0.00 | 60 | 1019.8 |
| 20260503043822 | 51 | 111 | 0.0 | 1.0 | 0.00 | 0.00 | 0.00 | 58 | 1019.8 |
| 20260503043319 | 52 | 101 | 0.0 | 1.0 | 0.00 | 0.00 | 0.00 | 59 | 1019.9 |
| 20260503042815 | 52 | 110 | 1.0 | 1.0 | 0.00 | 0.00 | 0.00 | 57 | 1019.8 |
| 20260503042312 | 52 | 106 | 0.0 | 0.0 | 0.00 | 0.00 | 0.00 | 59 | 1019.8 |
| 20260503041808 | 52 | 83 | 1.0 | 1.0 | 0.00 | 0.00 | 0.00 | 56 | 1019.6 |
| 20260503041306 | 53 | 101 | 0.0 | 0.0 | 0.00 | 0.00 | 0.00 | 56 | 1019.5 |
| 20260503040803 | 53 | 101 | 0.0 | 1.0 | 0.00 | 0.00 | 0.00 | 56 | 1019.4 |
| 20260503040301 | 53 | 86 | 0.0 | 1.0 | 0.00 | 0.00 | 0.00 | 55 | 1019.5 |
| 20260503035757 | 53 | 135 | 0.0 | 2.0 | 0.00 | 0.00 | 0.00 | 55 | 1019.6 |
| 20260503035255 | 53 | 80 | 0.0 | 2.0 | 0.00 | 0.00 | 0.00 | 53 | 1019.6 |
| 20260503034752 | 53 | 85 | 0.0 | 1.0 | 0.00 | 0.00 | 0.00 | 54 | 1019.4 |
| 20260503034249 | 53 | 118 | 0.0 | 1.0 | 0.00 | 0.00 | 0.00 | 54 | 1019.5 |
| 20260503033746 | 53 | 277 | 3.0 | 6.0 | 0.00 | 0.00 | 0.00 | 53 | 1019.5 |
| 20260503033244 | 53 | 100 | 0.0 | 1.0 | 0.00 | 0.00 | 0.00 | 53 | 1019.5 |
| 20260503032742 | 53 | 327 | 2.0 | 3.0 | 0.00 | 0.00 | 0.00 | 53 | 1019.5 |
| 20260503032240 | 54 | 160 | 1.0 | 6.0 | 0.00 | 0.00 | 0.00 | 52 | 1019.3 |
| 20260503031737 | 54 | 133 | 1.0 | 4.0 | 0.00 | 0.00 | 0.00 | 52 | 1019.6 |
| 20260503031235 | 54 | 84 | 0.0 | 1.0 | 0.00 | 0.00 | 0.00 | 52 | 1019.3 |
| 20260503030731 | 54 | 308 | 4.0 | 6.0 | 0.00 | 0.00 | 0.00 | 51 | 1019.6 |
| 20260503030228 | 54 | 101 | 0.0 | 3.0 | 0.00 | 0.00 | 0.00 | 51 | 1019.4 |
| 20260503025724 | 54 | 114 | 1.0 | 3.0 | 0.00 | 0.00 | 0.00 | 51 | 1019.2 |
| 20260503025222 | 54 | 132 | 1.0 | 4.0 | 0.00 | 0.00 | 0.00 | 51 | 1019.2 |
| 20260503024719 | 54 | 92 | 0.0 | 1.0 | 0.00 | 0.00 | 0.00 | 51 | 1019.2 |
| 20260503024216 | 54 | 127 | 0.0 | 3.0 | 0.00 | 0.00 | 0.00 | 51 | 1019.2 |
| 20260503023713 | 54 | 122 | 0.0 | 1.0 | 0.00 | 0.00 | 0.00 | 52 | 1019.0 |
| 20260503023209 | 54 | 91 | 1.0 | 3.0 | 0.00 | 0.00 | 0.00 | 51 | 1019.0 |
| 20260503022706 | 54 | 103 | 0.0 | 1.0 | 0.00 | 0.00 | 0.00 | 51 | 1019.1 |
| 20260503022205 | 54 | 114 | 0.0 | 0.0 | 0.00 | 0.00 | 0.00 | 54 | 1019.0 |
| 20260503021702 | 53 | 76 | 1.0 | 3.0 | 0.00 | 0.00 | 0.00 | 54 | 1018.9 |
| 20260503021159 | 54 | 110 | 0.0 | 0.0 | 0.00 | 0.00 | 0.00 | 52 | 1018.9 |
| 20260503020656 | 54 | 110 | 0.0 | 0.0 | 0.00 | 0.00 | 0.00 | 52 | 1019.0 |
| 20260503020154 | 54 | 110 | 0.0 | 0.0 | 0.00 | 0.00 | 0.00 | 50 | 1018.8 |
| 20260503015650 | 54 | 35 | 2.0 | 4.0 | 0.00 | 0.00 | 0.00 | 49 | 1018.8 |
| 20260503015147 | 54 | 52 | 1.0 | 3.0 | 0.00 | 0.00 | 0.00 | 49 | 1018.6 |
| 20260503014643 | 55 | 92 | 0.0 | 2.0 | 0.00 | 0.00 | 0.00 | 49 | 1018.5 |
| 20260503014141 | 54 | 88 | 1.0 | 1.0 | 0.00 | 0.00 | 0.00 | 50 | 1018.6 |
| 20260503013638 | 54 | 90 | 0.0 | 1.0 | 0.00 | 0.00 | 0.00 | 50 | 1018.5 |
| 20260503013136 | 54 | 100 | 0.0 | 1.0 | 0.00 | 0.00 | 0.00 | 52 | 1018.5 |
| 20260503012633 | 54 | 101 | 0.0 | 1.0 | 0.00 | 0.00 | 0.00 | 53 | 1018.3 |
| 20260503012129 | 54 | 112 | 0.0 | 2.0 | 0.00 | 0.00 | 0.00 | 50 | 1018.3 |
| 20260503011626 | 54 | 133 | 0.0 | 1.0 | 0.00 | 0.00 | 0.00 | 50 | 1018.1 |
| 20260503011123 | 54 | 75 | 1.0 | 2.0 | 0.00 | 0.00 | 0.00 | 50 | 1018.1 |
| 20260503010619 | 53 | 94 | 1.0 | 6.0 | 0.00 | 0.00 | 0.00 | 51 | 1017.9 |
| 20260503010117 | 54 | 119 | 0.0 | 0.0 | 0.00 | 0.00 | 0.00 | 51 | 1017.9 |
| 20260503005614 | 54 | 119 | 0.0 | 0.0 | 0.00 | 0.00 | 0.00 | 50 | 1017.8 |
| 20260503005111 | 55 | 119 | 0.0 | 0.0 | 0.00 | 0.00 | 0.00 | 48 | 1017.8 |
| 20260503004607 | 56 | 117 | 1.0 | 1.0 | 0.00 | 0.00 | 0.00 | 49 | 1017.8 |
| 20260503004106 | 56 | 101 | 0.0 | 1.0 | 0.00 | 0.00 | 0.00 | 46 | 1017.7 |
| 20260503003602 | 56 | 263 | 1.0 | 3.0 | 0.00 | 0.00 | 0.00 | 46 | 1017.5 |
| 20260503003059 | 56 | 91 | 0.0 | 1.0 | 0.00 | 0.00 | 0.00 | 47 | 1017.5 |
| 20260503002556 | 56 | 32 | 1.0 | 3.0 | 0.00 | 0.00 | 0.00 | 45 | 1017.4 |
| 20260503002053 | 56 | 126 | 0.0 | 1.0 | 0.00 | 0.00 | 0.00 | 45 | 1017.5 |
| 20260503001549 | 56 | 88 | 0.0 | 0.0 | 0.00 | 0.00 | 0.00 | 44 | 1017.4 |
| 20260503001047 | 57 | 102 | 0.0 | 1.0 | 0.00 | 0.00 | 0.00 | 44 | 1017.2 |
| 20260503000544 | 57 | 102 | 0.0 | 0.0 | 0.00 | 0.00 | 0.00 | 46 | 1017.2 |
| 20260503000041 | 57 | 101 | 0.0 | 1.0 | 0.00 | 0.00 | 0.00 | 43 | 1016.9 |
| 20260502235537 | 58 | 68 | 0.0 | 2.0 | 0.00 | 0.00 | 0.00 | 42 | 1017.2 |
| 20260502235035 | 58 | 133 | 0.0 | 1.0 | 0.00 | 0.00 | 0.00 | 41 | 1016.9 |
| 20260502234531 | 58 | 90 | 1.0 | 4.0 | 0.00 | 0.00 | 0.00 | 42 | 1016.8 |
| 20260502234029 | 59 | 96 | 0.0 | 1.0 | 0.00 | 0.00 | 0.00 | 40 | 1016.8 |
| 20260502233529 | 59 | 25 | 3.0 | 7.0 | 0.00 | 0.00 | 0.00 | 38 | 1016.7 |
| 20260502233027 | 59 | 175 | 3.0 | 4.0 | 0.00 | 0.00 | 0.00 | 39 | 1016.8 |
| 20260502232523 | 59 | 113 | 0.0 | 1.0 | 0.00 | 0.00 | 0.00 | 39 | 1016.8 |
| 20260502232020 | 59 | 71 | 0.0 | 3.0 | 0.00 | 0.00 | 0.00 | 37 | 1016.7 |
| 20260502231517 | 60 | 8 | 1.0 | 6.0 | 0.00 | 0.00 | 0.00 | 38 | 1016.4 |
| 20260502231015 | 60 | 106 | 0.0 | 1.0 | 0.00 | 0.00 | 0.00 | 43 | 1016.7 |
| 20260502230513 | 60 | 97 | 0.0 | 0.0 | 0.00 | 0.00 | 0.00 | 40 | 1016.7 |
| 20260502230011 | 60 | 114 | 0.0 | 2.0 | 0.00 | 0.00 | 0.00 | 37 | 1016.5 |
| 20260502225511 | 60 | 292 | 3.0 | 4.0 | 0.00 | 0.00 | 0.00 | 36 | 1016.7 |
| 20260502225009 | 61 | 270 | 2.0 | 2.0 | 0.00 | 0.00 | 0.00 | 37 | 1016.6 |
| 20260502224504 | 61 | 78 | 1.0 | 13.0 | 0.00 | 0.00 | 0.00 | 37 | 1016.5 |
| 20260502224002 | 61 | 123 | 0.0 | 0.0 | 0.00 | 0.00 | 0.00 | 35 | 1016.7 |
| 20260502223459 | 61 | 178 | 1.0 | 6.0 | 0.00 | 0.00 | 0.00 | 36 | 1016.8 |
| 20260502222957 | 61 | 258 | 5.0 | 7.0 | 0.00 | 0.00 | 0.00 | 34 | 1016.5 |
| 20260502222455 | 62 | 91 | 2.0 | 2.0 | 0.00 | 0.00 | 0.00 | 37 | 1016.3 |
| 20260502221950 | 62 | 113 | 0.0 | 4.0 | 0.00 | 0.00 | 0.00 | 34 | 1016.5 |
| 20260502221447 | 63 | 10 | 3.0 | 4.0 | 0.00 | 0.00 | 0.00 | 34 | 1016.5 |
| 20260502220944 | 63 | 143 | 2.0 | 4.0 | 0.00 | 0.00 | 0.00 | 33 | 1016.3 |
| 20260502220439 | 63 | 1 | 6.0 | 7.0 | 0.00 | 0.00 | 0.00 | 34 | 1016.2 |
| 20260502215936 | 63 | 93 | 1.0 | 1.0 | 0.00 | 0.00 | 0.00 | 34 | 1016.3 |
| 20260502215434 | 62 | 151 | 1.0 | 1.0 | 0.00 | 0.00 | 0.00 | 35 | 1016.3 |
| 20260502214931 | 62 | 99 | 2.0 | 3.0 | 0.00 | 0.00 | 0.00 | 34 | 1016.0 |
| 20260502214427 | 61 | 107 | 1.0 | 2.0 | 0.00 | 0.00 | 0.00 | 34 | 1016.4 |
| 20260502213925 | 62 | 117 | 2.0 | 3.0 | 0.00 | 0.00 | 0.00 | 34 | 1016.2 |
| 20260502213421 | 61 | 151 | 1.0 | 2.0 | 0.00 | 0.00 | 0.00 | 35 | 1016.1 |
| 20260502212920 | 62 | 91 | 2.0 | 8.0 | 0.00 | 0.00 | 0.00 | 35 | 1016.0 |
| 20260502212419 | 62 | 122 | 0.0 | 1.0 | 0.00 | 0.00 | 0.00 | 35 | 1016.0 |